Location: K�lo
(14.8895°N, 3.2640°W)
Time: 15:47:54
(UTC+00:00)

Daily predictions for brighter satellites

Satellite Brightness Start Highest point End
(mag) Time Altitude Azimuth Time Altitude Azimuth Time Altitude Azimuth
Meteor 1-5 Rocket 4.5 17:57:26 10° N 18:03:06 51° E 18:08:36 10° SSE
H-2A R/B 4.0 18:06:12 10° ENE 18:07:52 12° E 18:09:31 10° ESE
Aureole 3 Rocket 3.4 18:05:49 10° SSE 18:08:59 35° E 18:13:00 10° NNE
Cosmos 1515 Rocket 3.6 18:05:04 10° S 18:09:30 86° E 18:13:57 10° N
SL-27 R/B 3.7 18:07:01 10° SSE 18:09:44 22° E 18:12:30 10° NE
Cosmos 2278 4.0 18:08:48 10° N 18:14:11 44° ENE 18:19:33 10° SE
ATLAS 5 CENTAUR R/B 2.7 17:55:10 10° WSW 18:15:06 88° S 18:19:40 11° ENE
Cosmos 2228 Rocket 4.0 18:12:53 10° SSE 18:16:34 27° E 18:20:15 10° NE
BREEZE-M DEB (TANK) 4.0 18:14:48 10° NNW 18:17:18 20° NE 18:19:13 10° E
CZ-2C R/B 3.1 18:15:18 10° N 18:20:24 64° WNW 18:25:33 10° SSW
SL-24 R/B - RUBIN 2 3.5 18:17:29 10° NNW 18:21:44 59° ENE 18:26:06 10° SE
CZ-2D R/B 3.2 18:18:17 10° SSE 18:22:06 82° E 18:25:56 10° N
GPS 2-15 Rocket1 3.1 18:20:18 10° WNW 18:24:58 69° N 18:29:10 12° E
CZ-4B R/B 3.4 18:20:38 10° SSE 18:25:49 45° ENE 18:30:54 10° N
Cosmos 1655 Rocket 4.2 18:20:48 10° NNE 18:26:52 48° E 18:32:52 10° SSE
Meteosat 1 Rocket2 4.3 18:24:51 10° W 18:29:05 29° NNW 18:32:01 13° NE
Okean 1 4.5 18:28:19 10° SE 18:31:32 23° E 18:33:22 17° NE
MOS 1-B 4.3 18:26:05 10° SSE 18:31:50 76° ENE 18:37:35 10° N
SWIFT 2.8 18:29:37 10° W 18:33:47 60° SSW 18:37:57 10° ESE
Meteor 1-27 Rocket 3.8 18:29:30 10° S 18:35:03 77° W 18:40:33 10° N
YAOGAN 1 4.0 18:34:21 10° ESE 18:36:47 18° E 18:36:47 18° E
Cosmos 1833 4.3 18:32:14 10° SSW 18:37:49 82° WNW 18:43:26 10° NNE
PAYLOAD B 4.4 18:35:20 10° S 18:40:55 77° WSW 18:46:31 10° NNW
CZ-4C R/B 3.7 18:38:55 10° N 18:42:14 54° WNW 18:45:38 10° SSW
Cosmos 2298 Rocket 4.3 18:40:29 10° N 18:45:32 44° ENE 18:50:36 10° SSE
IRAS Rocket 4.2 18:40:47 10° NNE 18:46:15 63° ESE 18:51:45 10° S
ISS -1.8 18:45:12 10° N 18:46:20 16° NNE 18:46:20 16° NNE
BREEZE-M DEB (TANK) 2.0 18:47:02 10° SW 18:49:13 79° SE 18:50:36 31° NE
SL-08 RB Rocket 3.8 18:49:23 10° SSE 18:53:52 50° ENE 18:58:20 10° N
COSMOS 2487 3.1 18:56:41 10° S 18:59:10 34° SE 18:59:10 34° SE
Cosmos 1818 3.7 18:57:07 10° N 19:02:21 50° ENE 19:07:34 10° SE
Cosmos 1536 2.7 19:01:16 20° N 19:03:53 62° E 19:07:49 10° SSE
GPS 2-12 Rocket1 3.3 18:59:43 10° W 19:04:08 52° N 19:05:14 41° NE
Aurora 2 Rocket 3.2 19:00:14 10° WNW 19:04:59 79° SSW 19:09:33 21° ESE
USA 234 4.4 19:10:00 22° NNE 19:10:00 22° NNE 19:13:36 10° N
Okean O Rocket 2.0 19:04:16 10° S 19:08:39 66° WSW 19:13:04 10° NNW
H-2A R/B 3.8 19:05:01 10° SSW 19:09:44 34° W 19:14:21 10° NW
Cosmos 158 Rocket 3.8 19:05:17 10° S 19:10:03 58° ESE 19:11:10 46° NE
GPS 2-04 Rocket1 3.8 19:10:40 10° NW 19:13:24 31° N 19:13:24 31° N
Cosmos 1933 Rocket 4.0 19:10:57 10° NNW 19:15:12 60° W 19:19:28 10° S
CZ-4C R/B 3.3 19:11:07 10° NNW 19:19:29 81° WSW 19:28:14 10° SSE
Cosmos 2322 Rocket 3.8 19:15:28 10° N 19:27:14 - SSE 19:17:09 19° N
Cosmos 2150 Rocket 4.1 19:15:44 10° NNW 19:20:58 77° WSW 19:26:17 10° S
CZ-4 R/B 1.8 19:17:15 10° SSE 19:20:21 48° SSE 19:20:21 48° SSE
ARGOS 4.0 19:17:08 10° S 19:22:23 50° W 19:27:36 10° NNW
Cosmos 1417 Rocket 4.5 19:18:56 10° S 19:25:07 59° E 19:26:37 47° NE
Cosmos 1125 Rocket 3.7 19:21:45 10° NNW 19:27:00 73° WSW 19:32:16 10° S
Meteor 2-4 Rocket 3.7 19:22:30 10° S 19:28:00 59° E 19:28:06 59° E
Meteor 1-18 Rocket 4.3 19:26:22 10° S 19:32:14 82° W 19:35:07 32° N
CZ-3B R/B 4.2 19:31:30 10° SW 19:39:35 34° SSE 19:41:25 31° SE
SL-16 R/B 2.2 19:35:45 10° NNW 19:41:23 76° WSW 19:47:02 10° S
H-2A R/B 3.7 19:41:46 23° NNW 19:43:42 32° WNW 19:47:37 10° SW
Hubble Space Telescope 2.5 19:41:42 10° SW 19:43:57 29° SSW 19:43:57 29° SSW
CZ-3C R/B 3.2 19:48:30 10° SW 19:52:54 44° SE 19:54:02 43° ESE
Ariane H10+ 4.2 19:38:08 10° WSW 19:53:28 32° SSW 19:55:02 28° SSE
Cosmos 1244 Rocket 4.4 19:54:05 80° S 19:54:05 80° S 20:00:03 10° S
Delta 198 4.4 19:50:06 10° WNW 19:56:15 81° WNW 19:56:15 81° WNW
BREEZE M DEB (TANK) 4.3 19:56:40 10° NW 20:00:58 30° W 20:00:58 30° W
ARIANE 5 R/B 4.0 20:06:14 10° SW 20:07:45 20° SSW 20:07:45 20° SSW
Cosmos 2297 Rocket 4.4 20:23:27 10° SSW 20:24:41 17° SSW 20:24:41 17° SSW
